TimePDT,TemperatureF,Dew PointF,Humidity,Sea Level PressureIn,VisibilityMPH,Wind Direction,Wind SpeedMPH,Gust SpeedMPH,PrecipitationIn,Events,Conditions,WindDirDegrees,DateUTC
12:56 AM,54.0,51.1,90,30.15,10.0,North,-9999.0,-,N/A,,Mostly Cloudy,0,2013-05-10 07:56:00
1:56 AM,54.0,51.1,90,30.13,10.0,NW,3.5,-,N/A,,Overcast,310,2013-05-10 08:56:00
2:56 AM,53.1,50.0,89,30.13,10.0,Calm,Calm,-,N/A,,Overcast,0,2013-05-10 09:56:00
3:56 AM,53.1,51.1,93,30.13,10.0,Variable,3.5,-,N/A,,Overcast,0,2013-05-10 10:56:00
4:56 AM,52.0,51.1,97,30.11,9.0,Calm,Calm,-,N/A,,Overcast,0,2013-05-10 11:56:00
5:56 AM,51.1,50.0,96,30.11,6.0,North,3.5,-,N/A,,Mostly Cloudy,360,2013-05-10 12:56:00
6:56 AM,53.1,51.1,93,30.13,8.0,NNW,5.8,-,N/A,,Partly Cloudy,330,2013-05-10 13:56:00
7:56 AM,57.9,52.0,81,30.13,10.0,NW,6.9,-,N/A,,Clear,310,2013-05-10 14:56:00
8:56 AM,66.0,53.1,63,30.12,10.0,NW,10.4,-,N/A,,Clear,320,2013-05-10 15:56:00
9:56 AM,66.0,53.1,63,30.12,10.0,NW,15.0,-,N/A,,Clear,310,2013-05-10 16:56:00
10:56 AM,73.9,54.0,50,30.12,10.0,NW,6.9,-,N/A,,Clear,310,2013-05-10 17:56:00
11:56 AM,81.0,55.0,41,30.09,10.0,WNW,9.2,-,N/A,,Clear,300,2013-05-10 18:56:00
12:56 PM,72.0,54.0,53,30.09,10.0,NW,23.0,29.9,N/A,,Clear,320,2013-05-10 19:56:00
1:56 PM,70.0,53.1,55,30.09,10.0,NW,23.0,32.2,N/A,,Clear,320,2013-05-10 20:56:00
2:56 PM,72.0,52.0,49,30.09,10.0,NW,21.9,27.6,N/A,,Clear,320,2013-05-10 21:56:00
3:56 PM,66.0,53.1,63,30.07,10.0,NW,21.9,28.8,N/A,,Clear,310,2013-05-10 22:56:00
4:56 PM,63.0,52.0,67,30.07,10.0,NW,18.4,27.6,N/A,,Clear,310,2013-05-10 23:56:00
5:56 PM,60.1,52.0,75,30.06,10.0,NW,16.1,-,N/A,,Clear,310,2013-05-11 00:56:00
6:56 PM,57.9,52.0,81,30.07,10.0,NW,13.8,-,N/A,,Clear,310,2013-05-11 01:56:00
7:56 PM,54.0,52.0,93,30.10,8.0,NW,12.7,-,N/A,,Scattered Clouds,310,2013-05-11 02:56:00
8:56 PM,54.0,52.0,93,30.10,8.0,NNW,6.9,-,N/A,,Partly Cloudy,330,2013-05-11 03:56:00
9:56 PM,53.1,52.0,96,30.12,9.0,NW,5.8,-,N/A,,Clear,310,2013-05-11 04:56:00
10:56 PM,53.1,52.0,96,30.12,7.0,Calm,Calm,-,N/A,,Clear,0,2013-05-11 05:56:00
11:56 PM,54.0,51.1,90,30.12,9.0,West,3.5,-,N/A,,Clear,260,2013-05-11 06:56:00